Time,TemperatureF,DewpointF,PressureIn,WindDirection,WindDirectionDegrees,WindSpeedMPH,WindSpeedGustMPH,Humidity,HourlyPrecipIn,Conditions,Clouds,dailyrainin,SoftwareType,DateUTC
2013-02-24 00:00:00,9.2,4.8,29.97,WSW,246,0.0,0.0,82,0.00,,---,0.04,VWS V14.01,2013-02-24 06:00:00,
2013-02-24 00:05:00,8.9,4.5,29.97,WSW,246,0.0,0.0,82,0.00,,---,0.00,VWS V14.01,2013-02-24 06:05:00,
2013-02-24 00:10:00,8.6,4.2,29.97,WSW,246,0.0,0.0,82,0.00,,---,0.00,VWS V14.01,2013-02-24 06:10:00,
2013-02-24 00:15:00,8.3,4.0,29.97,WSW,246,0.0,0.0,82,0.00,,---,0.00,VWS V14.01,2013-02-24 06:15:00,
2013-02-24 00:20:00,8.1,3.8,29.97,WSW,246,0.0,0.0,82,0.00,,---,0.00,VWS V14.01,2013-02-24 06:20:00,
2013-02-24 00:25:00,8.0,3.7,29.97,WSW,246,0.0,0.0,82,0.00,,---,0.00,VWS V14.01,2013-02-24 06:25:00,
2013-02-24 00:30:00,8.1,4.0,29.97,WSW,246,0.0,0.0,83,0.00,,---,0.00,VWS V14.01,2013-02-24 06:30:00,
2013-02-24 00:35:00,8.0,3.9,29.98,WSW,246,0.0,0.0,83,0.00,,---,0.00,VWS V14.01,2013-02-24 06:35:00,
2013-02-24 00:40:00,7.9,6.1,29.98,WSW,246,0.0,0.0,92,0.00,,---,0.00,VWS V14.01,2013-02-24 06:40:00,
2013-02-24 00:45:00,8.0,3.9,29.98,WSW,246,0.0,0.0,83,0.00,,---,0.00,VWS V14.01,2013-02-24 06:45:00,
2013-02-24 00:50:00,8.3,4.2,29.99,WSW,246,0.0,0.0,83,0.00,,---,0.00,VWS V14.01,2013-02-24 06:50:00,
2013-02-24 00:55:00,8.5,4.4,29.99,WSW,246,0.0,0.0,83,0.00,,---,0.00,VWS V14.01,2013-02-24 06:55:00,
2013-02-24 01:00:00,8.6,4.5,29.99,WSW,246,0.0,0.0,83,0.00,,---,0.00,VWS V14.01,2013-02-24 07:00:00,
2013-02-24 01:05:00,8.3,4.0,30.00,WSW,246,0.0,0.0,82,0.00,,---,0.00,VWS V14.01,2013-02-24 07:05:00,
2013-02-24 01:10:00,7.8,3.2,30.00,WSW,246,0.0,0.0,81,0.00,,---,0.00,VWS V14.01,2013-02-24 07:10:00,
2013-02-24 01:15:00,7.4,2.8,30.00,WSW,246,0.0,0.0,81,0.00,,---,0.00,VWS V14.01,2013-02-24 07:15:00,
2013-02-24 01:20:00,7.1,2.5,30.00,WSW,246,0.0,0.0,81,0.00,,---,0.00,VWS V14.01,2013-02-24 07:20:00,
2013-02-24 01:25:00,6.7,2.1,30.00,WSW,246,0.0,0.0,81,0.00,,---,0.00,VWS V14.01,2013-02-24 07:25:00,
2013-02-24 01:30:00,6.4,1.8,30.01,WSW,246,0.0,0.0,81,0.00,,---,0.00,VWS V14.01,2013-02-24 07:30:00,
2013-02-24 01:35:00,6.2,1.6,30.01,WSW,246,0.0,0.0,81,0.00,,---,0.00,VWS V14.01,2013-02-24 07:35:00,
2013-02-24 01:40:00,6.1,1.5,30.01,WSW,246,0.0,0.0,81,0.00,,---,0.00,VWS V14.01,2013-02-24 07:40:00,
2013-02-24 01:45:00,5.9,1.3,30.00,WSW,246,0.0,0.0,81,0.00,,---,0.00,VWS V14.01,2013-02-24 07:45:00,
2013-02-24 01:50:00,5.8,1.5,30.00,WSW,246,0.0,0.0,82,0.00,,---,0.00,VWS V14.01,2013-02-24 07:50:00,
2013-02-24 01:55:00,5.7,1.4,30.01,WSW,246,0.0,0.0,82,0.00,,---,0.00,VWS V14.01,2013-02-24 07:55:00,
2013-02-24 02:00:00,5.6,1.3,30.01,WSW,246,0.0,0.0,82,0.00,,---,0.00,VWS V14.01,2013-02-24 08:00:00,
2013-02-24 02:05:00,5.7,1.4,30.01,WSW,246,0.0,0.0,82,0.00,,---,0.00,VWS V14.01,2013-02-24 08:05:00,
2013-02-24 02:10:00,5.6,1.3,30.01,WSW,246,0.0,0.0,82,0.00,,---,0.00,VWS V14.01,2013-02-24 08:10:00,
2013-02-24 02:15:00,5.6,1.3,30.02,WSW,246,0.0,0.0,82,0.00,,---,0.00,VWS V14.01,2013-02-24 08:15:00,
2013-02-24 02:20:00,5.6,1.3,30.02,WSW,246,0.0,0.0,82,0.00,,---,0.00,VWS V14.01,2013-02-24 08:20:00,
2013-02-24 02:25:00,5.6,1.3,30.02,WSW,246,0.0,0.0,82,0.00,,---,0.00,VWS V14.01,2013-02-24 08:25:00,
2013-02-24 02:30:00,5.7,1.7,30.02,WSW,246,0.0,0.0,83,0.00,,---,0.00,VWS V14.01,2013-02-24 08:30:00,
2013-02-24 02:35:00,5.7,1.4,30.02,WSW,246,0.0,0.0,82,0.00,,---,0.00,VWS V14.01,2013-02-24 08:35:00,
2013-02-24 02:40:00,5.4,1.1,30.02,WSW,246,0.0,0.0,82,0.00,,---,0.00,VWS V14.01,2013-02-24 08:40:00,
2013-02-24 02:45:00,5.1,0.8,30.02,WSW,246,0.0,0.0,82,0.00,,---,0.00,VWS V14.01,2013-02-24 08:45:00,
2013-02-24 02:50:00,4.9,0.4,30.02,WSW,246,0.0,0.0,81,0.00,,---,0.00,VWS V14.01,2013-02-24 08:50:00,
2013-02-24 02:55:00,4.7,0.4,30.02,WSW,246,0.0,0.0,82,0.00,,---,0.00,VWS V14.01,2013-02-24 08:55:00,
2013-02-24 03:00:00,4.7,0.4,30.02,WSW,246,0.0,0.0,82,0.00,,---,0.00,VWS V14.01,2013-02-24 09:00:00,
2013-02-24 03:05:00,4.7,0.4,30.02,WSW,246,0.0,0.0,82,0.00,,---,0.00,VWS V14.01,2013-02-24 09:05:00,
2013-02-24 03:10:00,4.6,0.3,30.02,WSW,246,0.0,0.0,82,0.00,,---,0.00,VWS V14.01,2013-02-24 09:10:00,
2013-02-24 03:15:00,4.5,0.0,30.02,WSW,246,0.0,0.0,81,0.00,,---,0.00,VWS V14.01,2013-02-24 09:15:00,
2013-02-24 03:20:00,4.3,-0.2,30.02,WSW,246,0.0,0.0,81,0.00,,---,0.00,VWS V14.01,2013-02-24 09:20:00,
2013-02-24 03:25:00,4.1,-0.4,30.02,WSW,246,0.0,0.0,81,0.00,,---,0.00,VWS V14.01,2013-02-24 09:25:00,
2013-02-24 03:30:00,4.0,-0.5,30.01,WSW,246,0.0,0.0,81,0.00,,---,0.00,VWS V14.01,2013-02-24 09:30:00,
2013-02-24 03:35:00,3.8,-0.7,30.02,WSW,246,0.0,0.0,81,0.00,,---,0.00,VWS V14.01,2013-02-24 09:35:00,
2013-02-24 03:40:00,3.8,-0.7,30.02,WSW,246,0.0,0.0,81,0.00,,---,0.00,VWS V14.01,2013-02-24 09:40:00,
2013-02-24 03:45:00,3.7,-0.6,30.02,WSW,246,0.0,0.0,82,0.00,,---,0.00,VWS V14.01,2013-02-24 09:45:00,
2013-02-24 03:50:00,3.6,-0.9,30.01,WSW,246,0.0,0.0,81,0.00,,---,0.00,VWS V14.01,2013-02-24 09:50:00,
2013-02-24 03:55:00,3.4,-1.1,30.02,WSW,246,0.0,0.0,81,0.00,,---,0.00,VWS V14.01,2013-02-24 09:55:00,
2013-02-24 03:59:00,3.3,-1.2,30.02,WSW,246,0.0,0.0,81,0.00,,---,0.00,VWS V14.01,2013-02-24 09:59:00,
2013-02-24 04:00:00,3.2,-1.3,30.01,WSW,246,0.0,0.0,81,0.00,,---,0.00,VWS V14.01,2013-02-24 10:00:00,
2013-02-24 04:04:00,3.2,-1.0,30.02,WSW,246,0.0,0.0,82,0.00,,---,0.00,VWS V14.01,2013-02-24 10:04:00,
2013-02-24 04:09:00,3.4,-0.9,30.02,WSW,246,0.0,0.0,82,0.00,,---,0.00,VWS V14.01,2013-02-24 10:09:00,
2013-02-24 04:14:00,3.9,-0.1,30.02,WSW,246,0.0,0.0,83,0.00,,---,0.00,VWS V14.01,2013-02-24 10:14:00,
2013-02-24 04:19:00,4.0,-0.3,30.02,WSW,246,0.0,0.0,82,0.00,,---,0.00,VWS V14.01,2013-02-24 10:19:00,
2013-02-24 04:24:00,3.8,-0.7,30.02,WSW,246,0.0,0.0,81,0.00,,---,0.00,VWS V14.01,2013-02-24 10:24:00,
2013-02-24 04:29:00,3.5,-1.0,30.02,WSW,246,0.0,0.0,81,0.00,,---,0.00,VWS V14.01,2013-02-24 10:29:00,
2013-02-24 04:30:00,3.5,-1.0,30.02,WSW,246,0.0,0.0,81,0.00,,---,0.00,VWS V14.01,2013-02-24 10:30:00,
2013-02-24 04:34:00,3.3,-1.2,30.02,WSW,246,0.0,0.0,81,0.00,,---,0.00,VWS V14.01,2013-02-24 10:34:00,
2013-02-24 04:39:00,3.3,-1.2,30.02,WSW,246,0.0,0.0,81,0.00,,---,0.00,VWS V14.01,2013-02-24 10:39:00,
2013-02-24 04:44:00,3.2,-1.3,30.03,WSW,246,0.0,0.0,81,0.00,,---,0.00,VWS V14.01,2013-02-24 10:44:00,
2013-02-24 04:49:00,3.2,-1.3,30.03,WSW,246,0.0,0.0,81,0.00,,---,0.00,VWS V14.01,2013-02-24 10:49:00,
2013-02-24 04:54:00,3.1,-1.4,30.03,WSW,246,0.0,0.0,81,0.00,,---,0.00,VWS V14.01,2013-02-24 10:54:00,
2013-02-24 04:59:00,3.0,-1.5,30.03,WSW,246,0.0,0.0,81,0.00,,---,0.00,VWS V14.01,2013-02-24 10:59:00,
2013-02-24 05:00:00,2.9,-1.6,30.03,WSW,246,0.0,0.0,81,0.00,,---,0.00,VWS V14.01,2013-02-24 11:00:00,
2013-02-24 05:04:00,2.8,-1.7,30.03,WSW,246,0.0,0.0,81,0.00,,---,0.00,VWS V14.01,2013-02-24 11:04:00,
2013-02-24 05:09:00,2.6,-1.9,30.03,WSW,246,0.0,0.0,81,0.00,,---,0.00,VWS V14.01,2013-02-24 11:09:00,
2013-02-24 05:14:00,2.3,-2.2,30.04,WSW,246,0.0,0.0,81,0.00,,---,0.00,VWS V14.01,2013-02-24 11:14:00,
2013-02-24 05:19:00,2.2,-2.5,30.03,WSW,246,0.0,0.0,80,0.00,,---,0.00,VWS V14.01,2013-02-24 11:19:00,
2013-02-24 05:24:00,2.0,-2.7,30.04,WSW,246,0.0,0.0,80,0.00,,---,0.00,VWS V14.01,2013-02-24 11:24:00,
2013-02-24 05:29:00,1.8,-2.9,30.04,WSW,246,0.0,0.0,80,0.00,,---,0.00,VWS V14.01,2013-02-24 11:29:00,
2013-02-24 05:30:00,1.7,-3.0,30.04,WSW,246,0.0,0.0,80,0.00,,---,0.00,VWS V14.01,2013-02-24 11:30:00,
2013-02-24 05:34:00,1.7,-3.0,30.04,WSW,246,0.0,0.0,80,0.00,,---,0.00,VWS V14.01,2013-02-24 11:34:00,
2013-02-24 05:39:00,1.5,-3.0,30.04,WSW,246,0.0,0.0,81,0.00,,---,0.00,VWS V14.01,2013-02-24 11:39:00,
2013-02-24 05:44:00,1.5,-3.0,30.04,WSW,246,0.0,0.0,81,0.00,,---,0.00,VWS V14.01,2013-02-24 11:44:00,
2013-02-24 05:49:00,1.4,-3.1,30.04,WSW,246,0.0,0.0,81,0.00,,---,0.00,VWS V14.01,2013-02-24 11:49:00,
2013-02-24 05:54:00,1.7,-2.8,30.04,WSW,246,0.0,0.0,81,0.00,,---,0.00,VWS V14.01,2013-02-24 11:54:00,
2013-02-24 05:59:00,1.8,-2.7,30.04,WSW,246,0.0,0.0,81,0.00,,---,0.00,VWS V14.01,2013-02-24 11:59:00,
2013-02-24 06:00:00,1.8,-2.7,30.05,WSW,246,0.0,0.0,81,0.00,,---,0.00,VWS V14.01,2013-02-24 12:00:00,
2013-02-24 06:04:00,1.8,-2.7,30.05,WSW,246,0.0,0.0,81,0.00,,---,0.00,VWS V14.01,2013-02-24 12:04:00,
2013-02-24 06:09:00,1.8,-2.7,30.05,WSW,246,0.0,0.0,81,0.00,,---,0.00,VWS V14.01,2013-02-24 12:09:00,
2013-02-24 06:14:00,1.8,-2.7,30.05,WSW,246,0.0,0.0,81,0.00,,---,0.00,VWS V14.01,2013-02-24 12:14:00,
2013-02-24 06:19:00,1.7,-2.8,30.05,WSW,246,0.0,0.0,81,0.00,,---,0.00,VWS V14.01,2013-02-24 12:19:00,
2013-02-24 06:24:00,1.7,-2.8,30.06,WSW,246,0.0,0.0,81,0.00,,---,0.00,VWS V14.01,2013-02-24 12:24:00,
2013-02-24 06:29:00,1.7,-2.8,30.07,WSW,246,0.0,0.0,81,0.00,,---,0.00,VWS V14.01,2013-02-24 12:29:00,
2013-02-24 06:30:00,1.7,-2.8,30.07,WSW,246,0.0,0.0,81,0.00,,---,0.00,VWS V14.01,2013-02-24 12:30:00,
2013-02-24 06:34:00,1.9,-2.3,30.07,WSW,246,0.0,0.0,82,0.00,,---,0.00,VWS V14.01,2013-02-24 12:34:00,
2013-02-24 06:39:00,2.5,-1.7,30.07,WSW,246,0.0,0.0,82,0.00,,---,0.00,VWS V14.01,2013-02-24 12:39:00,
2013-02-24 06:44:00,2.8,1.0,30.07,WSW,246,0.0,0.0,92,0.00,,---,0.00,VWS V14.01,2013-02-24 12:44:00,
2013-02-24 06:49:00,2.9,-1.6,30.07,WSW,246,0.0,0.0,81,0.00,,---,0.00,VWS V14.01,2013-02-24 12:49:00,
2013-02-24 06:54:00,3.0,-1.5,30.07,WSW,246,0.0,0.0,81,0.00,,---,0.00,VWS V14.01,2013-02-24 12:54:00,
2013-02-24 06:59:00,3.1,-1.4,30.07,WSW,246,0.0,0.0,81,0.00,,---,0.00,VWS V14.01,2013-02-24 12:59:00,
2013-02-24 07:00:00,3.1,-1.4,30.07,WSW,246,0.0,0.0,81,0.00,,---,0.00,VWS V14.01,2013-02-24 13:00:00,
2013-02-24 07:04:00,3.1,-1.4,30.08,WSW,246,0.0,0.0,81,0.00,,---,0.00,VWS V14.01,2013-02-24 13:04:00,
2013-02-24 07:09:00,3.2,-1.0,30.08,WSW,246,0.0,0.0,82,0.00,,---,0.00,VWS V14.01,2013-02-24 13:09:00,
2013-02-24 07:14:00,3.4,-0.9,30.07,WSW,246,0.0,0.0,82,0.00,,---,0.00,VWS V14.01,2013-02-24 13:14:00,
2013-02-24 07:19:00,3.7,-0.3,30.07,WSW,246,0.0,0.0,83,0.00,,---,0.00,VWS V14.01,2013-02-24 13:19:00,
2013-02-24 07:24:00,3.9,-0.1,30.07,WSW,246,0.0,0.0,83,0.00,,---,0.00,VWS V14.01,2013-02-24 13:24:00,
2013-02-24 07:29:00,4.1,0.1,30.07,WSW,246,0.0,0.0,83,0.00,,---,0.00,VWS V14.01,2013-02-24 13:29:00,
2013-02-24 07:30:00,4.1,0.1,30.08,WSW,246,0.0,0.0,83,0.00,,---,0.00,VWS V14.01,2013-02-24 13:30:00,
2013-02-24 07:34:00,4.3,0.3,30.08,WSW,246,0.0,0.0,83,0.00,,---,0.00,VWS V14.01,2013-02-24 13:34:00,
2013-02-24 07:39:00,4.7,0.9,30.08,WSW,246,0.0,0.0,84,0.00,,---,0.00,VWS V14.01,2013-02-24 13:39:00,
2013-02-24 07:44:00,5.0,1.2,30.08,WSW,246,0.0,0.0,84,0.00,,---,0.00,VWS V14.01,2013-02-24 13:44:00,
2013-02-24 07:49:00,5.4,1.6,30.08,WSW,246,0.0,0.0,84,0.00,,---,0.00,VWS V14.01,2013-02-24 13:49:00,
2013-02-24 07:54:00,5.8,2.0,30.08,WSW,246,0.0,0.0,84,0.00,,---,0.00,VWS V14.01,2013-02-24 13:54:00,
2013-02-24 07:59:00,6.2,2.4,30.08,WSW,246,0.0,0.0,84,0.00,,---,0.00,VWS V14.01,2013-02-24 13:59:00,
2013-02-24 08:00:00,6.4,2.6,30.08,WSW,246,0.0,0.0,84,0.00,,---,0.00,VWS V14.01,2013-02-24 14:00:00,
2013-02-24 08:04:00,6.7,2.6,30.09,WSW,246,0.0,0.0,83,0.00,,---,0.00,VWS V14.01,2013-02-24 14:04:00,
2013-02-24 08:09:00,7.2,3.1,30.09,WSW,246,0.0,0.0,83,0.00,,---,0.00,VWS V14.01,2013-02-24 14:09:00,
2013-02-24 08:14:00,7.6,3.8,30.09,WSW,246,0.0,0.0,84,0.00,,---,0.00,VWS V14.01,2013-02-24 14:14:00,
2013-02-24 08:19:00,8.1,4.3,30.09,WSW,246,0.0,0.0,84,0.00,,---,0.00,VWS V14.01,2013-02-24 14:19:00,
2013-02-24 08:24:00,8.6,4.8,30.09,WSW,246,0.0,0.0,84,0.00,,---,0.00,VWS V14.01,2013-02-24 14:24:00,
2013-02-24 08:29:00,9.1,5.3,30.09,WSW,246,0.0,0.0,84,0.00,,---,0.00,VWS V14.01,2013-02-24 14:29:00,
2013-02-24 08:30:00,9.2,5.4,30.09,WSW,246,0.0,0.0,84,0.00,,---,0.00,VWS V14.01,2013-02-24 14:30:00,
2013-02-24 08:34:00,9.5,5.7,30.09,WSW,246,0.0,0.0,84,0.00,,---,0.00,VWS V14.01,2013-02-24 14:34:00,
2013-02-24 08:39:00,9.9,6.0,30.09,WSW,246,0.0,0.0,84,0.00,,---,0.00,VWS V14.01,2013-02-24 14:39:00,
2013-02-24 08:44:00,10.4,6.5,30.10,WSW,246,0.0,0.0,84,0.00,,---,0.00,VWS V14.01,2013-02-24 14:44:00,
2013-02-24 08:49:00,10.4,6.3,30.09,WSW,246,0.0,0.0,83,0.00,,---,0.00,VWS V14.01,2013-02-24 14:49:00,
2013-02-24 08:54:00,10.4,6.3,30.10,WSW,246,0.0,0.0,83,0.00,,---,0.00,VWS V14.01,2013-02-24 14:54:00,
2013-02-24 08:59:00,10.8,6.9,30.10,WSW,246,0.0,0.0,84,0.00,,---,0.00,VWS V14.01,2013-02-24 14:59:00,
2013-02-24 09:00:00,10.9,7.0,30.10,WSW,246,0.0,0.0,84,0.00,,---,0.00,VWS V14.01,2013-02-24 15:00:00,
2013-02-24 09:04:00,11.3,7.4,30.11,WSW,246,0.0,0.0,84,0.00,,---,0.00,VWS V14.01,2013-02-24 15:04:00,
2013-02-24 09:09:00,12.1,8.2,30.10,WSW,246,0.0,0.0,84,0.00,,---,0.00,VWS V14.01,2013-02-24 15:09:00,
2013-02-24 09:14:00,12.7,9.1,30.11,WSW,246,0.0,0.0,85,0.00,,---,0.00,VWS V14.01,2013-02-24 15:14:00,
2013-02-24 09:19:00,13.2,9.3,30.10,WSW,246,0.0,0.0,84,0.00,,---,0.00,VWS V14.01,2013-02-24 15:19:00,
2013-02-24 09:24:00,13.4,9.5,30.10,WSW,246,0.0,0.0,84,0.00,,---,0.00,VWS V14.01,2013-02-24 15:24:00,
2013-02-24 09:29:00,13.8,9.9,30.10,WSW,246,0.0,0.0,84,0.00,,---,0.00,VWS V14.01,2013-02-24 15:29:00,
2013-02-24 09:30:00,14.0,10.3,30.10,WSW,246,0.0,0.0,85,0.00,,---,0.00,VWS V14.01,2013-02-24 15:30:00,
2013-02-24 09:34:00,14.4,10.5,30.11,WSW,246,0.0,0.0,84,0.00,,---,0.00,VWS V14.01,2013-02-24 15:34:00,
2013-02-24 09:39:00,14.8,10.9,30.11,WSW,246,0.0,0.0,84,0.00,,---,0.00,VWS V14.01,2013-02-24 15:39:00,
2013-02-24 09:44:00,15.1,11.1,30.11,WSW,246,0.0,0.0,84,0.00,,---,0.00,VWS V14.01,2013-02-24 15:44:00,
2013-02-24 09:49:00,15.2,11.2,30.11,WSW,246,0.0,0.0,84,0.00,,---,0.00,VWS V14.01,2013-02-24 15:49:00,
2013-02-24 09:54:00,15.2,11.0,30.11,WSW,246,0.0,1.0,83,0.00,,---,0.00,VWS V14.01,2013-02-24 15:54:00,
2013-02-24 09:59:00,15.3,11.1,30.11,WSW,246,0.0,1.0,83,0.00,,---,0.00,VWS V14.01,2013-02-24 15:59:00,
2013-02-24 10:00:00,15.3,11.1,30.11,WSW,246,0.0,1.0,83,0.00,,---,0.00,VWS V14.01,2013-02-24 16:00:00,
2013-02-24 10:04:00,15.5,11.3,30.11,WSW,246,0.0,0.0,83,0.00,,---,0.00,VWS V14.01,2013-02-24 16:04:00,
2013-02-24 10:09:00,15.9,11.7,30.11,WSW,246,0.0,0.0,83,0.00,,---,0.00,VWS V14.01,2013-02-24 16:09:00,
2013-02-24 10:14:00,16.4,12.1,30.11,WSW,246,0.0,0.0,83,0.00,,---,0.00,VWS V14.01,2013-02-24 16:14:00,
2013-02-24 10:19:00,17.0,12.7,30.12,WSW,246,0.0,1.0,83,0.00,,---,0.00,VWS V14.01,2013-02-24 16:19:00,
2013-02-24 10:24:00,17.5,12.9,30.11,WSW,246,0.0,1.0,82,0.00,,---,0.00,VWS V14.01,2013-02-24 16:24:00,
2013-02-24 10:29:00,18.2,13.9,30.11,WSW,246,0.0,1.0,83,0.00,,---,0.00,VWS V14.01,2013-02-24 16:29:00,
2013-02-24 10:30:00,18.6,14.0,30.11,WSW,246,0.0,1.0,82,0.00,,---,0.00,VWS V14.01,2013-02-24 16:30:00,
2013-02-24 10:34:00,19.4,14.8,30.11,WSW,246,0.0,0.0,82,0.00,,---,0.00,VWS V14.01,2013-02-24 16:34:00,
2013-02-24 10:39:00,20.6,15.4,30.11,WSW,246,0.0,0.0,80,0.00,,---,0.00,VWS V14.01,2013-02-24 16:39:00,
2013-02-24 10:44:00,21.5,15.4,30.11,WSW,246,0.0,1.0,77,0.00,,---,0.00,VWS V14.01,2013-02-24 16:44:00,
2013-02-24 10:49:00,21.7,15.0,30.12,WSW,246,0.0,1.0,75,0.00,,---,0.00,VWS V14.01,2013-02-24 16:49:00,
2013-02-24 10:54:00,21.6,14.9,30.12,WSW,246,1.0,1.0,75,0.00,,---,0.00,VWS V14.01,2013-02-24 16:54:00,
2013-02-24 10:59:00,21.6,14.9,30.12,WSW,246,0.0,1.0,75,0.00,,---,0.00,VWS V14.01,2013-02-24 16:59:00,
2013-02-24 11:00:00,21.6,14.9,30.12,WSW,246,0.0,1.0,75,0.00,,---,0.00,VWS V14.01,2013-02-24 17:00:00,
2013-02-24 11:04:00,21.8,15.1,30.12,WSW,246,0.0,1.0,75,0.00,,---,0.00,VWS V14.01,2013-02-24 17:04:00,
2013-02-24 11:09:00,21.8,15.1,30.12,WSW,246,0.0,1.0,75,0.00,,---,0.00,VWS V14.01,2013-02-24 17:09:00,
2013-02-24 11:14:00,21.8,15.4,30.12,WSW,246,0.0,1.0,76,0.00,,---,0.00,VWS V14.01,2013-02-24 17:14:00,
2013-02-24 11:19:00,22.4,16.0,30.12,WSW,246,0.0,2.0,76,0.00,,---,0.00,VWS V14.01,2013-02-24 17:19:00,
2013-02-24 11:24:00,22.7,16.3,30.13,WSW,246,0.0,2.0,76,0.00,,---,0.00,VWS V14.01,2013-02-24 17:24:00,
2013-02-24 11:29:00,22.7,16.3,30.13,WSW,246,0.0,3.0,76,0.00,,---,0.00,VWS V14.01,2013-02-24 17:29:00,
2013-02-24 11:30:00,22.6,16.2,30.13,WSW,246,0.0,3.0,76,0.00,,---,0.00,VWS V14.01,2013-02-24 17:30:00,
2013-02-24 11:34:00,22.7,16.3,30.13,WSW,246,0.0,1.0,76,0.00,,---,0.00,VWS V14.01,2013-02-24 17:34:00,
2013-02-24 11:39:00,22.9,16.5,30.13,WSW,246,0.0,1.0,76,0.00,,---,0.00,VWS V14.01,2013-02-24 17:39:00,
2013-02-24 11:44:00,23.2,16.8,30.13,WSW,246,0.0,1.0,76,0.00,,---,0.00,VWS V14.01,2013-02-24 17:44:00,
2013-02-24 11:49:00,23.8,17.0,30.13,WSW,246,0.0,1.0,75,0.00,,---,0.00,VWS V14.01,2013-02-24 17:49:00,
2013-02-24 11:54:00,24.3,17.2,30.13,WSW,246,0.0,1.0,74,0.00,,---,0.00,VWS V14.01,2013-02-24 17:54:00,
2013-02-24 11:59:00,24.6,17.2,30.13,WSW,246,0.0,2.0,73,0.00,,---,0.00,VWS V14.01,2013-02-24 17:59:00,
2013-02-24 12:00:00,24.7,17.3,30.13,WSW,246,0.0,2.0,73,0.00,,---,0.00,VWS V14.01,2013-02-24 18:00:00,
2013-02-24 12:04:00,25.0,17.6,30.13,WSW,246,0.0,1.0,73,0.00,,---,0.00,VWS V14.01,2013-02-24 18:04:00,
2013-02-24 12:09:00,25.5,18.1,30.13,WSW,246,0.0,1.0,73,0.00,,---,0.00,VWS V14.01,2013-02-24 18:09:00,
2013-02-24 12:14:00,25.8,18.0,30.13,WSW,246,1.0,1.0,72,0.00,,---,0.00,VWS V14.01,2013-02-24 18:14:00,
2013-02-24 12:19:00,26.1,18.6,30.13,WSW,246,0.0,1.0,73,0.00,,---,0.00,VWS V14.01,2013-02-24 18:19:00,
2013-02-24 12:24:00,26.3,18.5,30.13,WSW,246,0.0,1.0,72,0.00,,---,0.00,VWS V14.01,2013-02-24 18:24:00,
2013-02-24 12:29:00,26.7,18.9,30.13,SW,217,0.0,2.0,72,0.00,,---,0.00,VWS V14.01,2013-02-24 18:29:00,
2013-02-24 12:30:00,26.9,19.1,30.13,SW,217,0.0,2.0,72,0.00,,---,0.00,VWS V14.01,2013-02-24 18:30:00,
2013-02-24 12:34:00,27.1,19.3,30.12,SW,217,0.0,1.0,72,0.00,,---,0.00,VWS V14.01,2013-02-24 18:34:00,
2013-02-24 12:39:00,27.5,19.4,30.12,South,174,0.0,2.0,71,0.00,,---,0.00,VWS V14.01,2013-02-24 18:39:00,
2013-02-24 12:44:00,27.9,19.4,30.12,South,174,0.0,2.0,70,0.00,,---,0.00,VWS V14.01,2013-02-24 18:44:00,
2013-02-24 12:49:00,28.6,20.1,30.12,South,174,1.0,2.0,70,0.00,,---,0.00,VWS V14.01,2013-02-24 18:49:00,
2013-02-24 12:54:00,28.8,19.9,30.13,South,173,0.0,2.0,69,0.01,,---,0.01,VWS V14.01,2013-02-24 18:54:00,
2013-02-24 12:59:00,28.9,20.0,30.12,South,174,2.0,2.0,69,0.01,,---,0.01,VWS V14.01,2013-02-24 18:59:00,
2013-02-24 13:00:00,28.7,19.5,30.13,South,173,1.0,2.0,68,0.01,,---,0.01,VWS V14.01,2013-02-24 19:00:00,
2013-02-24 13:04:00,28.4,19.5,30.13,South,173,0.0,2.0,69,0.01,,---,0.01,VWS V14.01,2013-02-24 19:04:00,
2013-02-24 13:09:00,28.1,19.6,30.12,SSE,163,0.0,2.0,70,0.01,,---,0.01,VWS V14.01,2013-02-24 19:09:00,
2013-02-24 13:14:00,28.5,20.0,30.12,SSE,163,1.0,2.0,70,0.01,,---,0.01,VWS V14.01,2013-02-24 19:14:00,
2013-02-24 13:19:00,28.8,19.9,30.12,SSE,163,0.0,2.0,69,0.01,,---,0.01,VWS V14.01,2013-02-24 19:19:00,
2013-02-24 13:24:00,29.0,20.1,30.12,SSW,203,1.0,2.0,69,0.01,,---,0.01,VWS V14.01,2013-02-24 19:24:00,
2013-02-24 13:29:00,29.2,20.0,30.12,SSW,204,1.0,3.0,68,0.01,,---,0.01,VWS V14.01,2013-02-24 19:29:00,
2013-02-24 13:30:00,29.3,20.4,30.12,SSW,203,0.0,3.0,69,0.01,,---,0.01,VWS V14.01,2013-02-24 19:30:00,
2013-02-24 13:34:00,29.5,20.3,30.12,SSW,203,0.0,3.0,68,0.01,,---,0.01,VWS V14.01,2013-02-24 19:34:00,
2013-02-24 13:39:00,29.9,20.6,30.12,SSW,199,0.0,3.0,68,0.01,,---,0.01,VWS V14.01,2013-02-24 19:39:00,
2013-02-24 13:44:00,30.1,20.5,30.12,SW,217,1.0,4.0,67,0.01,,---,0.01,VWS V14.01,2013-02-24 19:44:00,
2013-02-24 13:49:00,29.9,20.3,30.12,SW,217,1.0,4.0,67,0.01,,---,0.01,VWS V14.01,2013-02-24 19:49:00,
2013-02-24 13:54:00,29.7,20.1,30.12,SSE,161,3.0,4.0,67,0.01,,---,0.01,VWS V14.01,2013-02-24 19:54:00,
2013-02-24 13:59:00,29.5,20.3,30.12,SSW,211,0.0,4.0,68,0.01,,---,0.01,VWS V14.01,2013-02-24 19:59:00,
2013-02-24 14:00:00,29.6,20.4,30.12,SSW,211,0.0,4.0,68,0.01,,---,0.01,VWS V14.01,2013-02-24 20:00:00,
2013-02-24 14:04:00,29.8,20.2,30.12,SSW,213,2.0,3.0,67,0.00,,---,0.01,VWS V14.01,2013-02-24 20:04:00,
2013-02-24 14:09:00,30.0,20.4,30.12,SW,215,2.0,4.0,67,0.00,,---,0.01,VWS V14.01,2013-02-24 20:09:00,
2013-02-24 14:14:00,29.9,20.3,30.12,SSW,196,1.0,4.0,67,0.00,,---,0.01,VWS V14.01,2013-02-24 20:14:00,
2013-02-24 14:19:00,30.0,20.0,30.11,SW,225,1.0,4.0,66,0.00,,---,0.01,VWS V14.01,2013-02-24 20:19:00,
2013-02-24 14:24:00,29.8,19.8,30.12,SSW,211,0.0,4.0,66,0.00,,---,0.01,VWS V14.01,2013-02-24 20:24:00,
2013-02-24 14:29:00,29.8,20.2,30.11,SSW,211,0.0,4.0,67,0.00,,---,0.01,VWS V14.01,2013-02-24 20:29:00,
2013-02-24 14:30:00,29.9,20.3,30.11,SSW,211,1.0,4.0,67,0.00,,---,0.01,VWS V14.01,2013-02-24 20:30:00,
2013-02-24 14:34:00,29.9,19.9,30.11,SSW,211,0.0,2.0,66,0.00,,---,0.01,VWS V14.01,2013-02-24 20:34:00,
2013-02-24 14:39:00,29.9,19.9,30.11,SSW,196,0.0,2.0,66,0.00,,---,0.01,VWS V14.01,2013-02-24 20:39:00,
2013-02-24 14:44:00,29.9,20.3,30.11,SSE,168,1.0,2.0,67,0.00,,---,0.01,VWS V14.01,2013-02-24 20:44:00,
2013-02-24 14:49:00,30.0,20.4,30.11,SSE,168,0.0,2.0,67,0.00,,---,0.01,VWS V14.01,2013-02-24 20:49:00,
2013-02-24 14:54:00,30.2,20.6,30.11,SSE,167,1.0,3.0,67,0.00,,---,0.01,VWS V14.01,2013-02-24 20:54:00,
2013-02-24 14:59:00,30.5,20.5,30.11,South,169,0.0,3.0,66,0.00,,---,0.01,VWS V14.01,2013-02-24 20:59:00,
2013-02-24 15:00:00,30.5,20.5,30.11,SSE,168,1.0,3.0,66,0.00,,---,0.01,VWS V14.01,2013-02-24 21:00:00,
2013-02-24 15:04:00,30.5,20.5,30.11,South,169,1.0,2.0,66,0.00,,---,0.01,VWS V14.01,2013-02-24 21:04:00,
2013-02-24 15:09:00,30.5,20.5,30.11,South,188,0.0,3.0,66,0.00,,---,0.01,VWS V14.01,2013-02-24 21:09:00,
2013-02-24 15:14:00,30.7,20.7,30.11,South,180,0.0,3.0,66,0.00,,---,0.01,VWS V14.01,2013-02-24 21:14:00,
2013-02-24 15:19:00,30.6,20.2,30.11,South,174,0.0,3.0,65,0.00,,---,0.01,VWS V14.01,2013-02-24 21:19:00,
2013-02-24 15:24:00,30.4,20.4,30.11,South,174,0.0,3.0,66,0.00,,---,0.01,VWS V14.01,2013-02-24 21:24:00,
2013-02-24 15:29:00,30.2,20.2,30.11,South,173,0.0,3.0,66,0.00,,---,0.01,VWS V14.01,2013-02-24 21:29:00,
2013-02-24 15:30:00,30.3,20.7,30.11,South,174,0.0,3.0,67,0.00,,---,0.01,VWS V14.01,2013-02-24 21:30:00,
2013-02-24 15:34:00,30.2,20.2,30.11,South,173,0.0,1.0,66,0.00,,---,0.01,VWS V14.01,2013-02-24 21:34:00,
2013-02-24 15:39:00,30.2,20.2,30.11,South,173,0.0,1.0,66,0.00,,---,0.01,VWS V14.01,2013-02-24 21:39:00,
2013-02-24 15:44:00,30.1,20.1,30.11,South,174,0.0,1.0,66,0.00,,---,0.01,VWS V14.01,2013-02-24 21:44:00,
2013-02-24 15:49:00,30.0,20.4,30.11,SSE,165,0.0,1.0,67,0.00,,---,0.01,VWS V14.01,2013-02-24 21:49:00,
2013-02-24 15:54:00,29.8,20.5,30.11,SSE,164,0.0,1.0,68,0.00,,---,0.01,VWS V14.01,2013-02-24 21:54:00,
2013-02-24 15:59:00,29.9,20.6,30.11,SSE,165,1.0,2.0,68,0.00,,---,0.01,VWS V14.01,2013-02-24 21:59:00,
2013-02-24 16:00:00,30.0,20.7,30.11,SSE,165,1.0,2.0,68,0.00,,---,0.01,VWS V14.01,2013-02-24 22:00:00,
2013-02-24 16:04:00,29.9,20.3,30.11,SE,141,2.0,4.0,67,0.00,,---,0.01,VWS V14.01,2013-02-24 22:04:00,
2013-02-24 16:09:00,30.0,20.4,30.11,SSE,158,0.0,4.0,67,0.00,,---,0.01,VWS V14.01,2013-02-24 22:09:00,
2013-02-24 16:14:00,30.2,20.6,30.10,SSE,158,0.0,4.0,67,0.00,,---,0.01,VWS V14.01,2013-02-24 22:14:00,
2013-02-24 16:19:00,30.2,20.2,30.10,SSE,157,0.0,4.0,66,0.00,,---,0.01,VWS V14.01,2013-02-24 22:19:00,
2013-02-24 16:24:00,30.3,20.3,30.10,SSE,158,0.0,4.0,66,0.00,,---,0.01,VWS V14.01,2013-02-24 22:24:00,
2013-02-24 16:29:00,30.4,20.4,30.10,SSE,157,1.0,4.0,66,0.00,,---,0.01,VWS V14.01,2013-02-24 22:29:00,
2013-02-24 16:30:00,27.9,18.4,30.10,SSE,157,0.0,1.0,67,0.00,,---,0.01,VWS V14.01,2013-02-24 22:30:00,
2013-02-24 16:34:00,30.3,20.0,30.10,SSE,158,1.0,1.0,65,0.00,,---,0.01,VWS V14.01,2013-02-24 22:34:00,
2013-02-24 16:39:00,30.0,19.7,30.10,SSE,158,0.0,1.0,65,0.00,,---,0.01,VWS V14.01,2013-02-24 22:39:00,
2013-02-24 16:44:00,29.8,19.8,30.10,SSE,157,0.0,1.0,66,0.00,,---,0.01,VWS V14.01,2013-02-24 22:44:00,
2013-02-24 16:49:00,29.9,19.9,30.10,SSE,158,0.0,1.0,66,0.00,,---,0.01,VWS V14.01,2013-02-24 22:49:00,
2013-02-24 16:54:00,29.7,19.8,30.10,SSE,158,0.0,1.0,66,0.00,,---,0.01,VWS V14.01,2013-02-24 22:54:00,
2013-02-24 16:59:00,29.4,19.5,30.10,SSE,158,0.0,1.0,66,0.00,,---,0.01,VWS V14.01,2013-02-24 22:59:00,
2013-02-24 17:00:00,29.3,19.4,30.10,SSE,157,0.0,1.0,66,0.00,,---,0.01,VWS V14.01,2013-02-24 23:00:00,
2013-02-24 17:04:00,29.1,19.2,30.10,SSE,158,0.0,1.0,66,0.00,,---,0.01,VWS V14.01,2013-02-24 23:04:00,
2013-02-24 17:09:00,28.9,19.0,30.10,SSE,157,0.0,1.0,66,0.00,,---,0.01,VWS V14.01,2013-02-24 23:09:00,
2013-02-24 17:14:00,28.7,18.8,30.10,SSE,158,0.0,1.0,66,0.00,,---,0.01,VWS V14.01,2013-02-24 23:14:00,
2013-02-24 17:19:00,28.5,18.6,30.10,SSE,158,0.0,1.0,66,0.00,,---,0.01,VWS V14.01,2013-02-24 23:19:00,
2013-02-24 17:24:00,28.3,18.8,30.10,SSE,157,0.0,1.0,67,0.00,,---,0.01,VWS V14.01,2013-02-24 23:24:00,
2013-02-24 17:29:00,28.0,18.5,30.10,SSE,158,0.0,1.0,67,0.00,,---,0.01,VWS V14.01,2013-02-24 23:29:00,
2013-02-24 17:30:00,27.9,18.4,30.10,SSE,157,0.0,1.0,67,0.00,,---,0.01,VWS V14.01,2013-02-24 23:30:00,
2013-02-24 17:34:00,27.8,18.6,30.10,SSE,158,0.0,0.0,68,0.00,,---,0.01,VWS V14.01,2013-02-24 23:34:00,
2013-02-24 17:39:00,27.6,18.4,30.10,SSE,158,0.0,0.0,68,0.00,,---,0.01,VWS V14.01,2013-02-24 23:39:00,
2013-02-24 17:44:00,27.3,18.1,30.10,SSE,158,0.0,0.0,68,0.00,,---,0.01,VWS V14.01,2013-02-24 23:44:00,
2013-02-24 17:49:00,27.1,18.0,30.10,SSE,157,0.0,0.0,68,0.00,,---,0.01,VWS V14.01,2013-02-24 23:49:00,
2013-02-24 17:54:00,26.8,18.0,30.11,SSE,158,0.0,0.0,69,0.00,,---,0.01,VWS V14.01,2013-02-24 23:54:00,
2013-02-24 17:59:00,26.3,17.5,30.11,SSE,158,0.0,0.0,69,0.00,,---,0.01,VWS V14.01,2013-02-24 23:59:00,
2013-02-24 18:00:00,26.2,17.4,30.11,SSE,158,0.0,0.0,69,0.00,,---,0.01,VWS V14.01,2013-02-25 00:00:00,
2013-02-24 18:04:00,26.0,17.2,30.11,SSE,158,0.0,0.0,69,0.00,,---,0.01,VWS V14.01,2013-02-25 00:04:00,
2013-02-24 18:09:00,25.4,17.0,30.11,SSE,157,0.0,0.0,70,0.00,,---,0.01,VWS V14.01,2013-02-25 00:09:00,
2013-02-24 18:14:00,24.9,16.8,30.11,SSE,158,0.0,0.0,71,0.00,,---,0.01,VWS V14.01,2013-02-25 00:14:00,
2013-02-24 18:19:00,24.3,16.3,30.11,SSE,158,0.0,0.0,71,0.00,,---,0.01,VWS V14.01,2013-02-25 00:19:00,
2013-02-24 18:24:00,23.8,15.8,30.12,SSE,158,0.0,0.0,71,0.00,,---,0.01,VWS V14.01,2013-02-25 00:24:00,
2013-02-24 18:29:00,23.3,15.6,30.12,SSE,158,0.0,0.0,72,0.00,,---,0.01,VWS V14.01,2013-02-25 00:29:00,
2013-02-24 18:30:00,17.8,11.5,30.14,SSE,157,0.0,0.0,76,0.00,,---,0.01,VWS V14.01,2013-02-25 00:30:00,
2013-02-24 18:34:00,22.7,15.1,30.12,SSE,157,0.0,0.0,72,0.00,,---,0.01,VWS V14.01,2013-02-25 00:34:00,
2013-02-24 18:39:00,22.1,14.5,30.12,SSE,158,0.0,0.0,72,0.00,,---,0.01,VWS V14.01,2013-02-25 00:39:00,
2013-02-24 18:44:00,21.5,14.2,30.12,SSE,158,0.0,0.0,73,0.00,,---,0.01,VWS V14.01,2013-02-25 00:44:00,
2013-02-24 18:49:00,20.9,13.9,30.12,SSE,158,0.0,0.0,74,0.00,,---,0.01,VWS V14.01,2013-02-25 00:49:00,
2013-02-24 18:54:00,20.4,13.8,30.12,SSE,157,0.0,0.0,75,0.00,,---,0.01,VWS V14.01,2013-02-25 00:54:00,
2013-02-24 18:59:00,20.0,13.7,30.13,SSE,158,0.0,0.0,76,0.00,,---,0.01,VWS V14.01,2013-02-25 00:59:00,
2013-02-24 19:00:00,15.7,10.1,30.13,SSE,157,0.0,0.0,78,0.00,,---,0.01,VWS V14.01,2013-02-25 01:00:00,
2013-02-24 19:04:00,19.7,13.4,30.13,SSE,157,0.0,0.0,76,0.00,,---,0.01,VWS V14.01,2013-02-25 01:04:00,
2013-02-24 19:09:00,19.4,13.1,30.13,SSE,157,0.0,0.0,76,0.00,,---,0.01,VWS V14.01,2013-02-25 01:09:00,
2013-02-24 19:14:00,19.1,13.1,30.13,SSE,157,0.0,0.0,77,0.00,,---,0.01,VWS V14.01,2013-02-25 01:14:00,
2013-02-24 19:19:00,18.7,12.4,30.14,SSE,158,0.0,0.0,76,0.00,,---,0.01,VWS V14.01,2013-02-25 01:19:00,
2013-02-24 19:24:00,18.4,12.1,30.14,SSE,158,0.0,0.0,76,0.00,,---,0.01,VWS V14.01,2013-02-25 01:24:00,
2013-02-24 19:29:00,17.9,11.6,30.14,SSE,157,0.0,0.0,76,0.00,,---,0.01,VWS V14.01,2013-02-25 01:29:00,
2013-02-24 19:30:00,15.0,9.7,30.14,SSE,158,0.0,0.0,79,0.00,,---,0.01,VWS V14.01,2013-02-25 01:30:00,
2013-02-24 19:34:00,17.5,11.2,30.14,SSE,158,0.0,0.0,76,0.00,,---,0.01,VWS V14.01,2013-02-25 01:34:00,
2013-02-24 19:39:00,17.0,10.8,30.14,SSE,158,0.0,0.0,76,0.00,,---,0.01,VWS V14.01,2013-02-25 01:39:00,
2013-02-24 19:44:00,16.6,10.7,30.14,SSE,157,0.0,0.0,77,0.00,,---,0.01,VWS V14.01,2013-02-25 01:44:00,
2013-02-24 19:49:00,16.3,10.7,30.13,SSE,158,0.0,0.0,78,0.00,,---,0.01,VWS V14.01,2013-02-25 01:49:00,
2013-02-24 19:54:00,16.1,10.5,30.14,SSE,158,0.0,0.0,78,0.00,,---,0.01,VWS V14.01,2013-02-25 01:54:00,
2013-02-24 19:59:00,15.9,10.3,30.13,SSE,158,0.0,0.0,78,0.00,,---,0.01,VWS V14.01,2013-02-25 01:59:00,
2013-02-24 20:00:00,14.6,9.6,30.14,SSE,158,0.0,0.0,80,0.00,,---,0.01,VWS V14.01,2013-02-25 02:00:00,
2013-02-24 20:04:00,15.7,10.4,30.14,SSE,157,0.0,0.0,79,0.00,,---,0.01,VWS V14.01,2013-02-25 02:04:00,
2013-02-24 20:09:00,15.6,10.3,30.14,SSE,157,0.0,0.0,79,0.00,,---,0.01,VWS V14.01,2013-02-25 02:09:00,
2013-02-24 20:14:00,15.5,10.2,30.14,SSE,158,0.0,0.0,79,0.00,,---,0.01,VWS V14.01,2013-02-25 02:14:00,
2013-02-24 20:19:00,15.3,10.0,30.14,SSE,158,0.0,0.0,79,0.00,,---,0.01,VWS V14.01,2013-02-25 02:19:00,
2013-02-24 20:24:00,15.2,9.9,30.14,SSE,158,0.0,0.0,79,0.00,,---,0.01,VWS V14.01,2013-02-25 02:24:00,
2013-02-24 20:29:00,15.0,9.7,30.14,SSE,158,0.0,0.0,79,0.00,,---,0.01,VWS V14.01,2013-02-25 02:29:00,
2013-02-24 20:30:00,13.7,8.7,30.14,SSE,158,0.0,0.0,80,0.00,,---,0.01,VWS V14.01,2013-02-25 02:30:00,
2013-02-24 20:34:00,14.9,9.6,30.14,SSE,157,0.0,0.0,79,0.00,,---,0.01,VWS V14.01,2013-02-25 02:34:00,
2013-02-24 20:39:00,14.9,9.9,30.14,SSE,158,0.0,0.0,80,0.00,,---,0.01,VWS V14.01,2013-02-25 02:39:00,
2013-02-24 20:44:00,14.8,9.8,30.14,SSE,158,0.0,0.0,80,0.00,,---,0.01,VWS V14.01,2013-02-25 02:44:00,
2013-02-24 20:49:00,14.7,9.7,30.14,SSE,157,0.0,0.0,80,0.00,,---,0.01,VWS V14.01,2013-02-25 02:49:00,
2013-02-24 20:54:00,14.7,9.7,30.14,SSE,157,0.0,0.0,80,0.00,,---,0.01,VWS V14.01,2013-02-25 02:54:00,
2013-02-24 20:59:00,14.6,9.6,30.14,SSE,158,0.0,0.0,80,0.00,,---,0.01,VWS V14.01,2013-02-25 02:59:00,
2013-02-24 21:00:00,12.9,8.2,30.14,SSE,157,0.0,0.0,81,0.00,,---,0.01,VWS V14.01,2013-02-25 03:00:00,
2013-02-24 21:04:00,14.5,9.5,30.14,SSE,158,0.0,0.0,80,0.00,,---,0.01,VWS V14.01,2013-02-25 03:04:00,
2013-02-24 21:09:00,14.4,9.4,30.14,SSE,158,0.0,0.0,80,0.00,,---,0.01,VWS V14.01,2013-02-25 03:09:00,
2013-02-24 21:14:00,14.3,9.3,30.14,SSE,158,0.0,0.0,80,0.00,,---,0.01,VWS V14.01,2013-02-25 03:14:00,
2013-02-24 21:19:00,14.2,9.2,30.13,SSE,157,0.0,0.0,80,0.00,,---,0.01,VWS V14.01,2013-02-25 03:19:00,
2013-02-24 21:24:00,14.0,9.0,30.14,SSE,158,0.0,0.0,80,0.00,,---,0.01,VWS V14.01,2013-02-25 03:24:00,
2013-02-24 21:29:00,13.7,8.7,30.14,SSE,158,0.0,0.0,80,0.00,,---,0.01,VWS V14.01,2013-02-25 03:29:00,
2013-02-24 21:30:00,12.6,7.9,30.14,SSE,157,0.0,0.0,81,0.00,,---,0.01,VWS V14.01,2013-02-25 03:30:00,
2013-02-24 21:34:00,13.6,8.6,30.14,SSE,158,0.0,0.0,80,0.00,,---,0.01,VWS V14.01,2013-02-25 03:34:00,
2013-02-24 21:39:00,13.5,8.8,30.14,SSE,157,0.0,0.0,81,0.00,,---,0.01,VWS V14.01,2013-02-25 03:39:00,
2013-02-24 21:44:00,13.5,8.8,30.14,SSE,158,0.0,0.0,81,0.00,,---,0.01,VWS V14.01,2013-02-25 03:44:00,
2013-02-24 21:49:00,13.3,8.6,30.14,SSE,158,0.0,0.0,81,0.00,,---,0.01,VWS V14.01,2013-02-25 03:49:00,
2013-02-24 21:54:00,13.2,8.5,30.14,SSE,158,0.0,0.0,81,0.00,,---,0.01,VWS V14.01,2013-02-25 03:54:00,
2013-02-24 21:59:00,13.0,8.3,30.14,SSE,157,0.0,0.0,81,0.00,,---,0.01,VWS V14.01,2013-02-25 03:59:00,
2013-02-24 22:00:00,12.1,7.7,30.14,SSE,158,0.0,0.0,82,0.00,,---,0.01,VWS V14.01,2013-02-25 04:00:00,
2013-02-24 22:04:00,12.8,8.1,30.14,SSE,158,0.0,0.0,81,0.00,,---,0.01,VWS V14.01,2013-02-25 04:04:00,
2013-02-24 22:09:00,12.8,8.4,30.14,SSE,158,0.0,0.0,82,0.00,,---,0.01,VWS V14.01,2013-02-25 04:09:00,
2013-02-24 22:14:00,13.0,8.6,30.14,SSE,158,0.0,0.0,82,0.00,,---,0.01,VWS V14.01,2013-02-25 04:14:00,
2013-02-24 22:19:00,13.0,8.6,30.14,SSE,158,0.0,0.0,82,0.00,,---,0.01,VWS V14.01,2013-02-25 04:19:00,
2013-02-24 22:24:00,12.8,8.1,30.14,SSE,158,0.0,0.0,81,0.00,,---,0.01,VWS V14.01,2013-02-25 04:24:00,
2013-02-24 22:29:00,12.7,8.0,30.14,SSE,158,0.0,0.0,81,0.00,,---,0.01,VWS V14.01,2013-02-25 04:29:00,
2013-02-24 22:30:00,11.7,7.6,30.14,SSE,157,0.0,0.0,83,0.00,,---,0.01,VWS V14.01,2013-02-25 04:30:00,
2013-02-24 22:34:00,12.5,7.8,30.14,SSE,158,0.0,0.0,81,0.00,,---,0.01,VWS V14.01,2013-02-25 04:34:00,
2013-02-24 22:39:00,12.5,7.8,30.14,SSE,158,0.0,0.0,81,0.00,,---,0.01,VWS V14.01,2013-02-25 04:39:00,
2013-02-24 22:44:00,12.4,8.0,30.14,SSE,157,0.0,0.0,82,0.00,,---,0.01,VWS V14.01,2013-02-25 04:44:00,
2013-02-24 22:49:00,12.3,7.9,30.14,SSE,158,0.0,0.0,82,0.00,,---,0.01,VWS V14.01,2013-02-25 04:49:00,
2013-02-24 22:54:00,12.2,7.8,30.14,SSE,158,0.0,0.0,82,0.00,,---,0.01,VWS V14.01,2013-02-25 04:54:00,
2013-02-24 22:59:00,12.1,7.7,30.14,SSE,158,0.0,0.0,82,0.00,,---,0.01,VWS V14.01,2013-02-25 04:59:00,
2013-02-24 23:00:00,12.1,7.7,30.14,SSE,158,0.0,0.0,82,0.00,,---,0.01,VWS V14.01,2013-02-25 05:00:00,
2013-02-24 23:05:00,12.1,7.7,30.14,SSE,158,0.0,0.0,82,0.00,,---,0.01,VWS V14.01,2013-02-25 05:05:00,
2013-02-24 23:10:00,12.0,7.6,30.14,SSE,157,0.0,0.0,82,0.00,,---,0.01,VWS V14.01,2013-02-25 05:10:00,
2013-02-24 23:15:00,11.9,7.5,30.14,SSE,157,0.0,0.0,82,0.00,,---,0.01,VWS V14.01,2013-02-25 05:15:00,
2013-02-24 23:20:00,11.7,7.3,30.14,SSE,158,0.0,0.0,82,0.00,,---,0.01,VWS V14.01,2013-02-25 05:20:00,
2013-02-24 23:25:00,11.7,7.3,30.14,SSE,158,0.0,0.0,82,0.00,,---,0.01,VWS V14.01,2013-02-25 05:25:00,
2013-02-24 23:30:00,11.7,7.6,30.14,SSE,158,0.0,0.0,83,0.00,,---,0.01,VWS V14.01,2013-02-25 05:30:00,
2013-02-24 23:35:00,11.7,7.6,30.14,SSE,157,0.0,0.0,83,0.00,,---,0.01,VWS V14.01,2013-02-25 05:35:00,
2013-02-24 23:40:00,11.8,7.6,30.14,SSE,158,0.0,0.0,83,0.00,,---,0.01,VWS V14.01,2013-02-25 05:40:00,
2013-02-24 23:45:00,11.7,7.6,30.14,SSE,158,0.0,0.0,83,0.00,,---,0.01,VWS V14.01,2013-02-25 05:45:00,
2013-02-24 23:50:00,11.6,7.2,30.14,SSE,158,0.0,0.0,82,0.00,,---,0.01,VWS V14.01,2013-02-25 05:50:00,
2013-02-24 23:55:00,11.3,6.9,30.14,SSE,157,0.0,0.0,82,0.00,,---,0.01,VWS V14.01,2013-02-25 05:55:00,